Pellston, MI

4:31 AM EDT on March 29, 2017 (GMT -0400)
Pellston Regional Airport Of Emmet County

Weather History for KPLN - June, 2014

Change the Weather History Date:

Monday, June 9, 2014

  Actual Average Record
Temperature  
Mean Temperature 56 °F -  
Max Temperature 75 °F 71 °F 89 °F (1976)
Min Temperature 37 °F 46 °F 30 °F (1977)
Degree Days  
Heating Degree Days 9    
Growing Degree Days 6 (Base 50)    
Moisture  
Dew Point 41 °F    
Average Humidity 62    
Maximum Humidity 93    
Minimum Humidity 29    
Precipitation  
Precipitation 0.00 in - - ()
Sea Level Pressure  
Sea Level Pressure 30.06 in    
Wind  
Wind Speed 4 mph (ENE)    
Max Wind Speed 16 mph    
Max Gust Speed -    
Visibility 10 miles    
Events      
Averages and records for this station are not official NWS values.
T = Trace of Precipitation, MM = Missing Value Source: NWS Daily Summary

Daily Weather History Graph

Daily Weather History Graph

Search for Another Location

Airport or City:

Trip Planner

Search our weather history database for the weather conditions in past years. The results will help you decide how hot, cold, wet, or windy it might be!

Date:

Astronomy

Jun. 09, 2014 Rise Set
Actual Time 5:50 AM EDT 9:26 PM EDT
Civil Twilight 5:12 AM EDT 10:04 PM EDT
Nautical Twilight 4:22 AM EDT 10:54 PM EDT
Astronomical Twilight 3:15 AM EDT 12:01 AM EDT
Moon 5:37 PM EDT (6/9) 3:28 AM EDT (6/9)
Length of Visible Light 16h 51m
Length of Day
15h 36m
Waxing Gibbous, 85% of the Moon is Illuminated
Jun 9
Waxing Gibbous
Jun 13
Full
Jun 19
Last Quarter
Jun 27
New
Jul 5
First Quarter

Hourly Weather History & Observations

Time (EDT) Temp. Windchill Dew Point Humidity Pressure Visibility Wind Dir Wind Speed Gust Speed Precip Events Conditions
12:54 AM 44.1 °F 41.5 °F 39.0 °F 82% 30.09 in 10.0 mi WNW 4.6 mph - N/A   Clear
1:54 AM 43.0 °F 41.3 °F 39.0 °F 86% 30.09 in 10.0 mi WNW 3.5 mph - N/A   Clear
2:54 AM 41.0 °F 39.0 °F 37.9 °F 89% 30.10 in 10.0 mi SE 3.5 mph - N/A   Clear
3:54 AM 41.0 °F - 37.9 °F 89% 30.08 in 10.0 mi Calm Calm - N/A   Clear
4:54 AM 39.9 °F - 37.0 °F 89% 30.08 in 10.0 mi Calm Calm - N/A   Clear
5:54 AM 37.9 °F - 36.0 °F 93% 30.08 in 10.0 mi Calm Calm - N/A   Clear
6:54 AM 42.1 °F - 39.0 °F 89% 30.09 in 10.0 mi Calm Calm - N/A   Clear
7:54 AM 51.1 °F - 41.0 °F 68% 30.10 in 10.0 mi Calm Calm - N/A   Clear
8:54 AM 57.0 °F - 43.0 °F 59% 30.11 in 10.0 mi ESE 5.8 mph - N/A   Clear
9:54 AM 64.0 °F - 48.0 °F 56% 30.11 in 10.0 mi Variable 4.6 mph - N/A   Clear
11:54 AM 71.1 °F - 46.9 °F 42% 30.09 in 10.0 mi ESE 13.8 mph - N/A   Clear
12:54 PM 73.0 °F - 46.9 °F 39% 30.06 in 10.0 mi ESE 9.2 mph - N/A   Clear
4:54 PM 75.0 °F - 42.1 °F 31% 30.01 in 10.0 mi NE 16.1 mph - N/A   Mostly Cloudy
5:54 PM 73.9 °F - 39.9 °F 29% 30.02 in 10.0 mi NE 13.8 mph - N/A   Clear
6:54 PM 72.0 °F - 39.9 °F 31% 30.02 in 10.0 mi ENE 10.4 mph - N/A   Partly Cloudy
7:54 PM 69.1 °F - 41.0 °F 36% 30.01 in 10.0 mi ENE 10.4 mph - N/A   Clear
8:54 PM 68.0 °F - 39.9 °F 36% 30.01 in 10.0 mi ENE 6.9 mph - N/A   Clear
9:54 PM 57.0 °F - 42.1 °F 57% 30.01 in 10.0 mi Calm Calm - N/A   Clear
10:54 PM 54.0 °F - 43.0 °F 66% 30.02 in 10.0 mi Calm Calm - N/A   Clear
11:54 PM 50.0 °F - 44.1 °F 80% 30.02 in 10.0 mi Calm Calm - N/A   Scattered Clouds